"read_dt","SO2 (ppb)","flags","PMT voltage (V)","lamp voltage (V)","lamp intensity (Hz)","internal temp (C)","react chamber temp (C)","sample flow (l/min)","pres (mmHg)","SO2 bkg (ppb)","SO2 coefficient"
2015-01-09 00:00:00,2450E-3,5C000000,-0724,0835,12152,024.3,045.3,0.460,748.7,01.17,0.508
2015-01-09 00:01:00,2569E-3,5C000000,-0724,0835,12048,024.3,045.3,0.460,748.7,01.17,0.508
2015-01-09 00:02:00,2558E-3,5C000000,-0724,0835,12106,024.3,045.3,0.460,748.7,01.17,0.508
2015-01-09 00:03:00,2410E-3,5C000000,-0724,0835,11988,024.3,045.3,0.460,748.7,01.17,0.508
2015-01-09 00:04:00,2476E-3,5C000000,-0724,0835,12271,024.3,045.3,0.459,748.5,01.17,0.508
2015-01-09 00:05:00,2495E-3,5C000000,-0724,0835,12065,024.3,045.3,0.460,748.5,01.17,0.508
2015-01-09 00:06:00,2401E-3,5C000000,-0724,0836,12359,024.3,045.4,0.459,748.5,01.17,0.508
2015-01-09 00:07:00,2393E-3,5C000000,-0724,0835,12090,024.3,045.3,0.460,748.5,01.17,0.508
2015-01-09 00:08:00,2430E-3,5C000000,-0724,0834,12285,024.3,045.3,0.460,748.5,01.17,0.508
2015-01-09 00:09:00,2234E-3,5C000000,-0724,0835,12061,024.3,045.4,0.460,748.6,01.17,0.508
2015-01-09 00:10:00,2458E-3,5C000000,-0724,0834,12167,024.3,045.3,0.460,748.5,01.17,0.508
2015-01-09 00:11:00,2460E-3,5C000000,-0724,0835,12074,024.3,045.4,0.460,748.4,01.17,0.508
2015-01-09 00:12:00,2449E-3,5C000000,-0724,0835,12272,024.3,045.3,0.460,748.4,01.17,0.508
2015-01-09 00:13:00,2666E-3,5C000000,-0724,0834,12186,024.3,045.3,0.459,748.3,01.17,0.508
2015-01-09 00:14:00,2379E-3,5C000000,-0724,0834,12077,024.3,045.3,0.460,748.4,01.17,0.508
2015-01-09 00:15:00,2360E-3,5C000000,-0724,0833,12078,024.3,045.3,0.460,748.3,01.17,0.508
2015-01-09 00:16:00,2362E-3,5C000000,-0724,0835,12079,024.3,045.3,0.460,748.3,01.17,0.508
2015-01-09 00:17:00,2332E-3,5C000000,-0724,0835,12287,024.3,045.3,0.460,748.4,01.17,0.508
2015-01-09 00:18:00,2355E-3,5C000000,-0724,0834,12090,024.3,045.3,0.460,748.3,01.17,0.508
2015-01-09 00:19:00,2397E-3,5C000000,-0724,0834,12063,024.3,045.3,0.460,748.2,01.17,0.508
2015-01-09 00:20:00,2366E-3,5C000000,-0724,0835,12218,024.3,045.3,0.459,748.3,01.17,0.508
2015-01-09 00:21:00,2463E-3,5C000000,-0724,0835,12292,024.3,045.3,0.460,748.3,01.17,0.508
2015-01-09 00:22:00,2273E-3,5C000000,-0724,0835,12233,024.3,045.3,0.460,748.3,01.17,0.508
2015-01-09 00:23:00,2538E-3,5C000000,-0724,0835,12104,024.3,045.4,0.460,748.5,01.17,0.508
2015-01-09 00:24:00,2395E-3,5C000000,-0724,0835,12156,024.3,045.3,0.460,748.5,01.17,0.508
2015-01-09 00:25:00,2455E-3,5C000000,-0724,0834,12094,024.3,045.3,0.460,748.7,01.17,0.508
2015-01-09 00:26:00,2591E-3,5C000000,-0724,0835,12192,024.3,045.3,0.460,748.6,01.17,0.508
2015-01-09 00:27:00,2360E-3,5C000000,-0724,0835,12212,024.3,045.3,0.460,748.5,01.17,0.508
2015-01-09 00:28:00,2407E-3,5C000000,-0724,0835,12080,024.3,045.3,0.460,748.6,01.17,0.508
2015-01-09 00:29:00,2356E-3,5C000000,-0724,0834,12012,024.3,045.3,0.460,748.6,01.17,0.508
2015-01-09 00:30:00,2466E-3,5C000000,-0724,0835,12211,024.3,045.4,0.460,748.6,01.17,0.508
2015-01-09 00:31:00,2343E-3,5C000000,-0724,0835,12111,024.3,045.3,0.460,748.6,01.17,0.508
2015-01-09 00:32:00,2328E-3,5C000000,-0724,0835,12137,024.3,045.3,0.460,748.6,01.17,0.508
2015-01-09 00:33:00,2422E-3,5C000000,-0724,0834,12251,024.3,045.3,0.460,748.7,01.17,0.508
2015-01-09 00:34:00,2312E-3,5C000000,-0724,0835,12180,024.3,045.3,0.460,748.5,01.17,0.508
2015-01-09 00:35:00,2441E-3,5C000000,-0724,0835,12140,024.3,045.3,0.460,748.6,01.17,0.508
2015-01-09 00:36:00,2377E-3,5C000000,-0724,0834,12166,024.2,045.3,0.460,748.6,01.17,0.508
2015-01-09 00:37:00,2445E-3,5C000000,-0724,0835,12092,024.2,045.3,0.460,748.5,01.17,0.508
2015-01-09 00:38:00,2465E-3,5C000000,-0724,0834,11994,024.2,045.3,0.460,748.5,01.17,0.508
2015-01-09 00:39:00,2361E-3,5C000000,-0724,0835,12094,024.3,045.3,0.460,748.3,01.17,0.508
2015-01-09 00:40:00,2304E-3,5C000000,-0724,0835,12124,024.2,045.3,0.460,748.2,01.17,0.508
2015-01-09 00:41:00,2478E-3,5C000000,-0724,0834,12209,024.2,045.3,0.460,747.9,01.17,0.508
2015-01-09 00:42:00,2542E-3,5C000000,-0724,0835,12194,024.2,045.3,0.460,747.9,01.17,0.508
2015-01-09 00:43:00,2393E-3,5C000000,-0724,0836,12098,024.2,045.3,0.460,748.0,01.17,0.508
2015-01-09 00:44:00,2373E-3,5C000000,-0724,0834,12003,024.2,045.3,0.460,748.0,01.17,0.508
2015-01-09 00:45:00,2391E-3,5C000000,-0724,0836,12221,024.2,045.3,0.460,747.8,01.17,0.508
2015-01-09 00:46:00,2453E-3,5C000000,-0724,0834,12242,024.2,045.3,0.460,748.0,01.17,0.508
2015-01-09 00:47:00,2349E-3,5C000000,-0724,0835,12278,024.2,045.3,0.460,747.9,01.17,0.508
2015-01-09 00:48:00,2301E-3,5C000000,-0724,0835,12143,024.2,045.3,0.460,747.9,01.17,0.508
2015-01-09 00:49:00,2337E-3,5C000000,-0724,0834,12080,024.2,045.3,0.460,747.9,01.17,0.508
2015-01-09 00:50:00,2299E-3,5C000000,-0724,0834,12249,024.2,045.3,0.460,747.9,01.17,0.508
2015-01-09 00:51:00,2423E-3,5C000000,-0724,0835,12128,024.2,045.3,0.460,748.1,01.17,0.508
2015-01-09 00:52:00,2431E-3,5C000000,-0724,0834,12088,024.2,045.3,0.460,748.1,01.17,0.508
2015-01-09 00:53:00,2495E-3,5C000000,-0724,0835,12100,024.2,045.3,0.460,748.3,01.17,0.508
2015-01-09 00:54:00,2372E-3,5C000000,-0724,0835,12244,024.2,045.3,0.460,748.2,01.17,0.508
2015-01-09 00:55:00,2383E-3,5C000000,-0724,0834,12107,024.2,045.3,0.460,748.4,01.17,0.508
2015-01-09 00:56:00,2370E-3,5C000000,-0724,0834,12134,024.2,045.3,0.460,748.4,01.17,0.508
2015-01-09 00:57:00,2326E-3,5C000000,-0724,0835,12137,024.2,045.3,0.460,748.5,01.17,0.508
2015-01-09 00:58:00,2400E-3,5C000000,-0724,0835,11989,024.2,045.3,0.460,748.5,01.17,0.508
2015-01-09 00:59:00,2405E-3,5C000000,-0724,0836,12278,024.2,045.3,0.460,748.4,01.17,0.508
2015-01-09 01:00:00,2312E-3,5C000000,-0724,0836,12157,024.1,045.3,0.460,748.4,01.17,0.508
2015-01-09 01:01:00,2372E-3,5C000000,-0724,0835,12059,024.1,045.3,0.460,748.5,01.17,0.508
2015-01-09 01:02:00,2494E-3,5C000000,-0724,0835,12259,024.2,045.3,0.460,748.6,01.17,0.508
2015-01-09 01:03:00,2451E-3,5C000000,-0724,0835,12054,024.1,045.3,0.460,748.5,01.17,0.508
2015-01-09 01:04:00,2303E-3,5C000000,-0724,0835,11969,024.1,045.3,0.460,748.6,01.17,0.508
2015-01-09 01:05:00,2396E-3,5C000000,-0724,0835,12275,024.1,045.3,0.460,748.6,01.17,0.508
2015-01-09 01:06:00,2430E-3,5C000000,-0724,0835,12404,024.1,045.3,0.460,748.7,01.17,0.508
2015-01-09 01:07:00,2671E-3,5C000000,-0724,0835,12128,024.1,045.3,0.460,748.6,01.17,0.508
2015-01-09 01:08:00,2289E-3,5C000000,-0724,0835,12256,024.1,045.4,0.460,748.6,01.17,0.508
2015-01-09 01:09:00,2338E-3,5C000000,-0724,0835,12084,024.2,045.4,0.460,748.5,01.17,0.508
2015-01-09 01:10:00,2315E-3,5C000000,-0724,0834,12151,024.1,045.3,0.460,748.6,01.17,0.508
2015-01-09 01:11:00,2349E-3,5C000000,-0724,0835,11981,024.2,045.3,0.460,748.6,01.17,0.508
2015-01-09 01:12:00,2503E-3,5C000000,-0724,0835,12125,024.2,045.3,0.460,748.5,01.17,0.508
2015-01-09 01:13:00,2312E-3,5C000000,-0724,0836,12073,024.1,045.3,0.460,748.5,01.17,0.508
2015-01-09 01:14:00,2331E-3,5C000000,-0724,0835,12160,024.1,045.3,0.460,748.6,01.17,0.508
2015-01-09 01:15:00,2407E-3,5C000000,-0724,0834,11994,024.1,045.3,0.460,748.5,01.17,0.508
2015-01-09 01:16:00,2575E-3,5C000000,-0724,0835,12083,024.2,045.3,0.460,748.5,01.17,0.508
2015-01-09 01:17:00,2387E-3,5C000000,-0724,0835,12258,024.1,045.3,0.460,748.5,01.17,0.508
2015-01-09 01:18:00,2441E-3,5C000000,-0724,0835,12080,024.1,045.3,0.460,748.5,01.17,0.508
2015-01-09 01:19:00,2458E-3,5C000000,-0724,0835,12158,024.2,045.3,0.460,748.4,01.17,0.508
2015-01-09 01:20:00,2338E-3,5C000000,-0724,0836,12106,024.2,045.3,0.460,748.3,01.17,0.508
2015-01-09 01:21:00,2415E-3,5C000000,-0724,0835,12247,024.2,045.3,0.460,748.3,01.17,0.508
2015-01-09 01:22:00,2391E-3,5C000000,-0724,0835,12165,024.2,045.3,0.460,748.3,01.17,0.508
2015-01-09 01:23:00,2376E-3,5C000000,-0724,0835,12264,024.2,045.3,0.460,748.4,01.17,0.508
2015-01-09 01:24:00,2319E-3,5C000000,-0724,0835,12192,024.2,045.3,0.460,748.3,01.17,0.508
2015-01-09 01:25:00,2384E-3,5C000000,-0724,0836,12154,024.2,045.3,0.460,748.4,01.17,0.508
2015-01-09 01:26:00,2452E-3,5C000000,-0724,0835,12075,024.1,045.3,0.460,748.3,01.17,0.508
2015-01-09 01:27:00,2418E-3,5C000000,-0724,0835,12058,024.1,045.3,0.460,748.1,01.17,0.508
2015-01-09 01:28:00,2443E-3,5C000000,-0724,0835,12161,024.2,045.3,0.459,748.1,01.17,0.508
2015-01-09 01:29:00,2482E-3,5C000000,-0724,0835,12121,024.2,045.3,0.460,748.1,01.17,0.508
2015-01-09 01:30:00,2363E-3,5C000000,-0724,0834,11931,024.1,045.3,0.459,748.2,01.17,0.508
2015-01-09 01:31:00,2365E-3,5C000000,-0724,0835,12149,024.1,045.3,0.460,748.0,01.17,0.508
2015-01-09 01:32:00,2398E-3,5C000000,-0724,0834,12148,024.1,045.3,0.459,747.8,01.17,0.508
2015-01-09 01:33:00,2330E-3,5C000000,-0724,0835,12178,024.1,045.3,0.460,747.9,01.17,0.508
2015-01-09 01:34:00,2379E-3,5C000000,-0724,0835,12220,024.1,045.3,0.459,747.8,01.17,0.508
2015-01-09 01:35:00,2391E-3,5C000000,-0724,0836,12151,024.1,045.3,0.460,747.8,01.17,0.508
2015-01-09 01:36:00,2393E-3,5C000000,-0724,0835,11887,024.1,045.3,0.460,747.7,01.17,0.508
2015-01-09 01:37:00,2481E-3,5C000000,-0724,0835,12203,024.1,045.3,0.460,747.8,01.17,0.508
2015-01-09 01:38:00,2337E-3,5C000000,-0724,0835,12107,024.1,045.3,0.460,747.9,01.17,0.508
2015-01-09 01:39:00,2452E-3,5C000000,-0724,0835,12194,024.1,045.3,0.460,747.9,01.17,0.508
2015-01-09 01:40:00,2272E-3,5C000000,-0724,0835,12164,024.1,045.3,0.460,748.0,01.17,0.508
2015-01-09 01:41:00,2440E-3,5C000000,-0724,0836,12238,024.1,045.3,0.460,748.0,01.17,0.508
2015-01-09 01:42:00,2363E-3,5C000000,-0724,0836,12055,024.1,045.3,0.460,748.0,01.17,0.508
2015-01-09 01:43:00,2496E-3,5C000000,-0724,0835,12148,024.1,045.3,0.460,748.1,01.17,0.508
2015-01-09 01:44:00,2421E-3,5C000000,-0724,0835,12193,024.1,045.3,0.460,748.0,01.17,0.508
2015-01-09 01:45:00,2458E-3,5C000000,-0724,0834,12148,024.1,045.3,0.460,748.1,01.17,0.508
2015-01-09 01:46:00,2285E-3,5C000000,-0724,0835,12208,024.1,045.3,0.460,748.1,01.17,0.508
2015-01-09 01:47:00,2311E-3,5C000000,-0724,0835,12012,024.1,045.3,0.460,748.2,01.17,0.508
2015-01-09 01:48:00,2364E-3,5C000000,-0724,0835,12208,024.1,045.3,0.460,748.3,01.17,0.508
2015-01-09 01:49:00,2445E-3,5C000000,-0724,0836,11961,024.1,045.3,0.460,748.0,01.17,0.508
2015-01-09 01:50:00,2375E-3,5C000000,-0724,0835,12079,024.1,045.3,0.460,748.1,01.17,0.508
2015-01-09 01:51:00,2389E-3,5C000000,-0724,0835,12328,024.1,045.3,0.460,747.9,01.17,0.508
2015-01-09 01:52:00,2323E-3,5C000000,-0724,0835,12181,024.1,045.3,0.460,748.2,01.17,0.508
2015-01-09 01:53:00,2434E-3,5C000000,-0724,0835,12301,024.1,045.3,0.460,748.3,01.17,0.508
2015-01-09 01:54:00,2357E-3,5C000000,-0724,0835,12127,024.1,045.3,0.460,748.3,01.17,0.508
2015-01-09 01:55:00,2427E-3,5C000000,-0724,0834,12208,024.1,045.3,0.460,748.3,01.17,0.508
2015-01-09 01:56:00,2275E-3,5C000000,-0724,0835,12116,024.1,045.3,0.460,748.2,01.17,0.508
2015-01-09 01:57:00,2425E-3,5C000000,-0724,0835,12194,024.1,045.3,0.460,748.2,01.17,0.508
2015-01-09 01:58:00,2224E-3,5C000000,-0724,0835,12149,024.1,045.3,0.460,748.3,01.17,0.508
2015-01-09 01:59:00,2473E-3,5C000000,-0724,0835,12025,024.1,045.3,0.460,748.3,01.17,0.508
2015-01-09 02:00:00,2410E-3,5C000000,-0724,0835,12207,024.1,045.3,0.460,748.2,01.17,0.508
2015-01-09 02:01:00,2405E-3,5C000000,-0724,0835,12072,024.1,045.3,0.460,748.1,01.17,0.508
2015-01-09 02:02:00,2426E-3,5C000000,-0724,0836,12228,024.1,045.3,0.460,748.2,01.17,0.508
2015-01-09 02:03:00,2502E-3,5C000000,-0724,0835,12136,024.1,045.3,0.460,748.2,01.17,0.508
2015-01-09 02:04:00,2362E-3,5C000000,-0724,0835,12140,024.1,045.3,0.460,748.3,01.17,0.508
2015-01-09 02:05:00,2303E-3,5C000000,-0724,0834,12289,024.1,045.3,0.460,748.2,01.17,0.508
2015-01-09 02:06:00,2266E-3,5C000000,-0724,0835,12084,024.1,045.3,0.460,748.3,01.17,0.508
2015-01-09 02:07:00,2361E-3,5C000000,-0724,0835,12093,024.1,045.3,0.460,748.3,01.17,0.508
2015-01-09 02:08:00,2384E-3,5C000000,-0724,0834,11977,024.1,045.3,0.460,748.3,01.17,0.508
2015-01-09 02:09:00,2255E-3,5C000000,-0724,0835,12171,024.1,045.3,0.460,748.3,01.17,0.508
2015-01-09 02:10:00,2411E-3,5C000000,-0724,0835,12124,024.1,045.3,0.460,748.3,01.17,0.508
2015-01-09 02:11:00,2295E-3,5C000000,-0724,0836,12223,024.1,045.3,0.460,748.1,01.17,0.508
2015-01-09 02:12:00,2440E-3,5C000000,-0724,0834,12206,024.1,045.3,0.460,748.2,01.17,0.508
2015-01-09 02:13:00,2414E-3,5C000000,-0724,0834,11997,024.1,045.3,0.460,748.2,01.17,0.508
2015-01-09 02:14:00,2504E-3,5C000000,-0724,0836,12180,024.1,045.3,0.460,748.2,01.17,0.508
2015-01-09 02:15:00,2382E-3,5C000000,-0724,0835,12169,024.1,045.3,0.460,748.3,01.17,0.508
2015-01-09 02:16:00,2448E-3,5C000000,-0724,0834,12134,024.1,045.3,0.460,748.2,01.17,0.508
2015-01-09 02:17:00,2395E-3,5C000000,-0724,0834,12172,024.1,045.3,0.460,748.2,01.17,0.508
2015-01-09 02:18:00,2402E-3,5C000000,-0724,0834,12285,024.1,045.3,0.460,748.3,01.17,0.508
2015-01-09 02:19:00,2337E-3,5C000000,-0724,0835,12280,024.1,045.3,0.460,748.3,01.17,0.508
2015-01-09 02:20:00,2428E-3,5C000000,-0724,0835,12241,024.1,045.3,0.460,748.1,01.17,0.508
2015-01-09 02:21:00,2439E-3,5C000000,-0724,0835,12039,024.1,045.3,0.460,748.1,01.17,0.508
2015-01-09 02:22:00,2396E-3,5C000000,-0724,0834,12254,024.1,045.4,0.459,748.1,01.17,0.508
2015-01-09 02:23:00,2317E-3,5C000000,-0724,0835,12182,024.1,045.3,0.460,748.0,01.17,0.508
2015-01-09 02:24:00,2457E-3,5C000000,-0724,0835,12205,024.1,045.3,0.460,748.0,01.17,0.508
2015-01-09 02:25:00,2388E-3,5C000000,-0724,0835,12132,024.1,045.3,0.460,748.0,01.17,0.508
2015-01-09 02:26:00,2475E-3,5C000000,-0724,0835,12154,024.2,045.3,0.460,748.0,01.17,0.508
2015-01-09 02:27:00,2403E-3,5C000000,-0724,0834,12113,024.2,045.3,0.460,748.0,01.17,0.508
2015-01-09 02:28:00,2405E-3,5C000000,-0724,0835,11951,024.1,045.3,0.460,747.8,01.17,0.508
2015-01-09 02:29:00,2508E-3,5C000000,-0724,0835,12109,024.1,045.3,0.459,747.8,01.17,0.508
2015-01-09 02:30:00,2376E-3,5C000000,-0724,0835,12096,024.1,045.3,0.460,747.8,01.17,0.508
2015-01-09 02:31:00,2477E-3,5C000000,-0724,0835,12346,024.1,045.3,0.460,748.0,01.17,0.508
2015-01-09 02:32:00,2458E-3,5C000000,-0724,0835,12265,024.1,045.3,0.460,748.0,01.17,0.508
2015-01-09 02:33:00,2436E-3,5C000000,-0724,0835,12094,024.1,045.3,0.460,748.0,01.17,0.508
2015-01-09 02:34:00,2364E-3,5C000000,-0724,0835,12265,024.2,045.3,0.459,748.0,01.17,0.508
2015-01-09 02:35:00,2347E-3,5C000000,-0724,0835,12063,024.1,045.3,0.460,747.8,01.17,0.508
2015-01-09 02:36:00,2305E-3,5C000000,-0724,0835,12096,024.2,045.3,0.459,748.1,01.17,0.508
2015-01-09 02:37:00,2464E-3,5C000000,-0724,0835,12115,024.2,045.3,0.460,748.0,01.17,0.508
2015-01-09 02:38:00,2365E-3,5C000000,-0724,0835,12241,024.2,045.3,0.460,748.0,01.17,0.508
2015-01-09 02:39:00,2308E-3,5C000000,-0724,0835,12273,024.2,045.3,0.460,748.1,01.17,0.508
2015-01-09 02:40:00,2407E-3,5C000000,-0724,0835,12219,024.2,045.3,0.460,748.0,01.17,0.508
2015-01-09 02:41:00,2403E-3,5C000000,-0724,0835,12099,024.1,045.3,0.459,747.9,01.17,0.508
2015-01-09 02:42:00,2398E-3,5C000000,-0724,0834,12058,024.2,045.3,0.460,747.8,01.17,0.508
2015-01-09 02:43:00,2365E-3,5C000000,-0724,0835,12124,024.2,045.3,0.459,747.8,01.17,0.508
2015-01-09 02:44:00,2494E-3,5C000000,-0724,0835,12089,024.2,045.3,0.460,747.8,01.17,0.508
2015-01-09 02:45:00,2323E-3,5C000000,-0724,0835,12238,024.2,045.3,0.460,747.8,01.17,0.508
2015-01-09 02:46:00,2286E-3,5C000000,-0724,0835,12340,024.2,045.3,0.460,747.9,01.17,0.508
2015-01-09 02:47:00,2517E-3,5C000000,-0724,0835,12367,024.1,045.3,0.460,747.8,01.17,0.508
2015-01-09 02:48:00,2412E-3,5C000000,-0724,0836,12219,024.1,045.3,0.459,747.8,01.17,0.508
2015-01-09 02:49:00,2276E-3,5C000000,-0724,0835,12289,024.2,045.3,0.460,748.0,01.17,0.508
2015-01-09 02:50:00,2398E-3,5C000000,-0724,0834,12114,024.2,045.3,0.459,748.0,01.17,0.508
2015-01-09 02:51:00,2304E-3,5C000000,-0724,0834,12051,024.2,045.3,0.460,748.0,01.17,0.508
2015-01-09 02:52:00,2369E-3,5C000000,-0724,0835,12009,024.1,045.3,0.460,748.1,01.17,0.508
2015-01-09 02:53:00,2418E-3,5C000000,-0724,0835,12202,024.2,045.3,0.460,748.0,01.17,0.508
2015-01-09 02:54:00,2420E-3,5C000000,-0724,0835,11916,024.2,045.3,0.460,748.0,01.17,0.508
2015-01-09 02:55:00,2443E-3,5C000000,-0724,0835,12112,024.2,045.3,0.460,748.1,01.17,0.508
2015-01-09 02:56:00,2376E-3,5C000000,-0724,0835,12028,024.2,045.3,0.460,748.1,01.17,0.508
2015-01-09 02:57:00,2252E-3,5C000000,-0724,0835,12162,024.2,045.4,0.460,748.2,01.17,0.508
2015-01-09 02:58:00,2323E-3,5C000000,-0724,0835,12062,024.2,045.3,0.460,748.1,01.17,0.508
2015-01-09 02:59:00,2319E-3,5C000000,-0724,0836,12250,024.2,045.3,0.460,748.1,01.17,0.508
2015-01-09 03:00:00,2396E-3,5C000000,-0724,0835,12209,024.2,045.3,0.460,748.1,01.17,0.508
2015-01-09 03:01:00,2418E-3,5C000000,-0724,0835,12093,024.2,045.3,0.460,748.2,01.17,0.508
2015-01-09 03:02:00,2403E-3,5C000000,-0724,0835,12200,024.2,045.3,0.460,748.1,01.17,0.508
2015-01-09 03:03:00,2496E-3,5C000000,-0724,0835,12081,024.2,045.4,0.460,748.2,01.17,0.508
2015-01-09 03:04:00,2399E-3,5C000000,-0724,0835,12174,024.2,045.4,0.460,748.2,01.17,0.508
2015-01-09 03:05:00,2408E-3,5C000000,-0724,0835,12289,024.2,045.3,0.460,748.2,01.17,0.508
2015-01-09 03:06:00,2317E-3,5C000000,-0724,0835,12223,024.2,045.4,0.460,748.3,01.17,0.508
2015-01-09 03:07:00,2420E-3,5C000000,-0724,0834,12027,024.2,045.3,0.459,748.3,01.17,0.508
2015-01-09 03:08:00,2384E-3,5C000000,-0724,0835,12137,024.2,045.3,0.460,748.3,01.17,0.508
2015-01-09 03:09:00,2356E-3,5C000000,-0724,0835,12218,024.2,045.3,0.459,748.2,01.17,0.508
2015-01-09 03:10:00,2244E-3,5C000000,-0724,0835,12204,024.2,045.3,0.460,748.3,01.17,0.508
2015-01-09 03:11:00,2600E-3,5C000000,-0724,0835,12203,024.2,045.3,0.459,748.1,01.17,0.508
2015-01-09 03:12:00,2358E-3,5C000000,-0724,0834,12226,024.2,045.3,0.460,748.2,01.17,0.508
2015-01-09 03:13:00,2488E-3,5C000000,-0724,0836,12078,024.2,045.3,0.459,748.2,01.17,0.508
2015-01-09 03:14:00,2526E-3,5C000000,-0724,0835,12148,024.3,045.3,0.460,748.3,01.17,0.508
2015-01-09 03:15:00,2442E-3,5C000000,-0724,0836,12217,024.2,045.3,0.460,748.3,01.17,0.508
2015-01-09 03:16:00,2328E-3,5C000000,-0724,0835,12164,024.2,045.3,0.460,748.3,01.17,0.508
2015-01-09 03:17:00,2432E-3,5C000000,-0724,0835,12091,024.2,045.3,0.459,748.2,01.17,0.508
2015-01-09 03:18:00,2288E-3,5C000000,-0724,0835,12313,024.3,045.3,0.460,748.3,01.17,0.508
2015-01-09 03:19:00,2351E-3,5C000000,-0724,0834,12229,024.2,045.3,0.460,748.3,01.17,0.508
2015-01-09 03:20:00,2313E-3,5C000000,-0724,0835,12030,024.2,045.3,0.460,748.3,01.17,0.508
2015-01-09 03:21:00,2297E-3,5C000000,-0724,0834,12148,024.2,045.3,0.459,748.3,01.17,0.508
2015-01-09 03:22:00,2380E-3,5C000000,-0724,0835,12116,024.3,045.3,0.460,748.3,01.17,0.508
2015-01-09 03:23:00,2424E-3,5C000000,-0724,0834,12121,024.3,045.3,0.459,748.2,01.17,0.508
2015-01-09 03:24:00,2473E-3,5C000000,-0724,0835,12294,024.3,045.3,0.460,748.1,01.17,0.508
2015-01-09 03:25:00,2498E-3,5C000000,-0724,0836,12179,024.3,045.3,0.459,748.1,01.17,0.508
2015-01-09 03:26:00,2461E-3,5C000000,-0724,0835,12134,024.2,045.4,0.460,748.2,01.17,0.508
2015-01-09 03:27:00,2333E-3,5C000000,-0724,0834,12154,024.3,045.3,0.459,748.0,01.17,0.508
2015-01-09 03:28:00,2393E-3,5C000000,-0724,0835,12099,024.3,045.3,0.460,748.1,01.17,0.508
2015-01-09 03:29:00,2381E-3,5C000000,-0724,0835,12180,024.3,045.3,0.459,748.1,01.17,0.508
2015-01-09 03:30:00,2489E-3,5C000000,-0724,0835,12028,024.3,045.4,0.460,748.1,01.17,0.508
2015-01-09 03:31:00,2492E-3,5C000000,-0724,0835,12065,024.3,045.3,0.459,748.1,01.17,0.508
2015-01-09 03:32:00,2520E-3,5C000000,-0724,0834,11974,024.3,045.3,0.460,748.0,01.17,0.508
2015-01-09 03:33:00,2403E-3,5C000000,-0724,0835,12203,024.3,045.3,0.459,748.0,01.17,0.508
2015-01-09 03:34:00,2326E-3,5C000000,-0724,0834,12093,024.3,045.3,0.460,748.0,01.17,0.508
2015-01-09 03:35:00,2296E-3,5C000000,-0724,0835,12028,024.3,045.3,0.459,747.8,01.17,0.508
2015-01-09 03:36:00,2449E-3,5C000000,-0724,0834,12218,024.3,045.3,0.460,747.8,01.17,0.508
2015-01-09 03:37:00,2456E-3,5C000000,-0724,0834,12172,024.3,045.3,0.459,747.9,01.17,0.508
2015-01-09 03:38:00,2397E-3,5C000000,-0724,0835,12074,024.3,045.3,0.460,747.9,01.17,0.508
2015-01-09 03:39:00,2359E-3,5C000000,-0724,0835,12287,024.3,045.3,0.459,748.0,01.17,0.508
2015-01-09 03:40:00,2429E-3,5C000000,-0724,0835,12097,024.3,045.3,0.460,747.8,01.17,0.508
2015-01-09 03:41:00,2413E-3,5C000000,-0724,0835,12140,024.3,045.3,0.459,747.8,01.17,0.508
2015-01-09 03:42:00,2422E-3,5C000000,-0724,0835,12024,024.3,045.3,0.460,747.7,01.17,0.508
2015-01-09 03:43:00,2322E-3,5C000000,-0724,0835,12102,024.3,045.3,0.459,747.8,01.17,0.508
2015-01-09 03:44:00,2394E-3,5C000000,-0724,0834,12135,024.3,045.3,0.460,747.7,01.17,0.508
2015-01-09 03:45:00,2405E-3,5C000000,-0724,0836,12163,024.3,045.4,0.460,747.7,01.17,0.508
2015-01-09 03:46:00,2301E-3,5C000000,-0724,0836,12026,024.3,045.4,0.459,747.7,01.17,0.508
2015-01-09 03:47:00,2345E-3,5C000000,-0724,0835,12124,024.3,045.3,0.459,747.6,01.17,0.508
2015-01-09 03:48:00,2491E-3,5C000000,-0724,0836,12173,024.3,045.3,0.459,747.6,01.17,0.508
2015-01-09 03:49:00,2296E-3,5C000000,-0724,0835,12272,024.3,045.3,0.460,747.6,01.17,0.508
2015-01-09 03:50:00,2499E-3,5C000000,-0724,0835,12213,024.3,045.3,0.459,747.6,01.17,0.508
2015-01-09 03:51:00,2401E-3,5C000000,-0724,0834,12086,024.3,045.3,0.460,747.5,01.17,0.508
2015-01-09 03:52:00,2345E-3,5C000000,-0724,0835,12242,024.3,045.4,0.459,747.5,01.17,0.508
2015-01-09 03:53:00,2345E-3,5C000000,-0724,0835,12173,024.3,045.3,0.460,747.6,01.17,0.508
2015-01-09 03:54:00,2441E-3,5C000000,-0724,0836,12175,024.3,045.3,0.459,747.6,01.17,0.508
2015-01-09 03:55:00,2464E-3,5C000000,-0724,0835,12092,024.2,045.3,0.460,747.6,01.17,0.508
2015-01-09 03:56:00,2391E-3,5C000000,-0724,0835,12048,024.2,045.4,0.459,747.5,01.17,0.508
2015-01-09 03:57:00,2342E-3,5C000000,-0724,0835,12117,024.2,045.3,0.460,747.5,01.17,0.508
2015-01-09 03:58:00,2443E-3,5C000000,-0724,0835,12157,024.2,045.3,0.459,747.6,01.17,0.508
2015-01-09 03:59:00,2287E-3,5C000000,-0724,0834,12052,024.2,045.3,0.460,747.7,01.17,0.508
2015-01-09 04:00:00,2485E-3,5C000000,-0724,0834,12169,024.2,045.3,0.460,747.8,01.17,0.508
2015-01-09 04:01:00,2358E-3,5C000000,-0724,0834,12058,024.2,045.3,0.460,747.8,01.17,0.508
2015-01-09 04:02:00,2236E-3,5C000000,-0724,0834,12190,024.2,045.3,0.460,747.9,01.17,0.508
2015-01-09 04:03:00,2244E-3,5C000000,-0724,0836,12038,024.2,045.3,0.459,747.8,01.17,0.508
2015-01-09 04:04:00,2347E-3,5C000000,-0724,0835,12118,024.2,045.3,0.460,747.7,01.17,0.508
2015-01-09 04:05:00,2384E-3,5C000000,-0724,0836,12113,024.2,045.4,0.459,747.8,01.17,0.508
2015-01-09 04:06:00,2572E-3,5C000000,-0724,0836,12247,024.2,045.3,0.460,747.8,01.17,0.508
2015-01-09 04:07:00,2338E-3,5C000000,-0724,0836,12127,024.2,045.3,0.459,747.8,01.17,0.508
2015-01-09 04:08:00,2505E-3,5C000000,-0724,0835,12088,024.2,045.3,0.460,747.9,01.17,0.508
2015-01-09 04:09:00,2372E-3,5C000000,-0724,0835,12291,024.2,045.3,0.460,748.1,01.17,0.508
2015-01-09 04:10:00,2440E-3,5C000000,-0724,0834,12078,024.2,045.3,0.460,748.1,01.17,0.508
2015-01-09 04:11:00,2318E-3,5C000000,-0724,0835,12078,024.2,045.3,0.460,748.0,01.17,0.508
2015-01-09 04:12:00,2232E-3,5C000000,-0724,0835,12070,024.2,045.3,0.460,748.1,01.17,0.508
2015-01-09 04:13:00,2381E-3,5C000000,-0724,0835,12118,024.2,045.3,0.460,748.0,01.17,0.508
2015-01-09 04:14:00,2358E-3,5C000000,-0724,0836,12205,024.2,045.3,0.459,748.0,01.17,0.508
2015-01-09 04:15:00,2365E-3,5C000000,-0724,0835,12269,024.2,045.3,0.460,748.1,01.17,0.508
2015-01-09 04:16:00,2406E-3,5C000000,-0724,0836,12200,024.2,045.4,0.459,748.0,01.17,0.508
2015-01-09 04:17:00,2470E-3,5C000000,-0724,0835,12049,024.2,045.3,0.460,748.0,01.17,0.508
2015-01-09 04:18:00,2289E-3,5C000000,-0724,0835,12248,024.2,045.3,0.459,748.1,01.17,0.508
2015-01-09 04:19:00,2443E-3,5C000000,-0724,0834,12295,024.3,045.4,0.460,748.1,01.17,0.508
2015-01-09 04:20:00,2460E-3,5C000000,-0724,0835,12143,024.3,045.4,0.460,748.2,01.17,0.508